Volver al catálogo

SL-12 DEB

LostHEO
NORAD 35083·DEBRIS·🇷🇺 Russia

Lanzado Apr 4, 1991 desde Baikonur Cosmodrome

Loading…

Próximos Pases (próximas 24 horas)

TLE

ObsoletoSource: Space-Track

Época: Oct 30, 2009, 09:41 UTC

1 35083U 91025AD  09303.40353552  .00000025  00000-0  10000-3 0  9999
2 35083  74.0003  93.0156 3808138  16.8025 341.8095  5.27249423  7939

Sigue SL-12 DEB en tiempo real con AllMySat

Download on the App Store